[[{"header":{"parameterUnit":"m.s-1","parameterCategory":1,"la1":30.2991,"la2":30.254,"lo1":-89.0895,"lo2":-89.0444,"dy":0.0017,"dx":0.0017,"nx":28,"ny":28,"refTime":"2024-10-13T09:00:00:Z","depth":0,"parameterNumber":2,"parameterNumberName":"U-component_of_WINDS"},"data":[0,0,0,0,0,0,0,0,0,0,0,0,0,0,0,0,0,0,0,0,0,0,0,0,0,0,0,0,0,0,0,0,0,0,0,0,0,0,0,0,0,0,0,0,0,0,0,0,0,0,0,0,0,0,0,0,0,0,0.9185,0.9185,0,0.9206,0.9206,0.9207,0.9226,0.9226,0.9226,0.9227,0.9249,0.9249,0.9249,0,0,0,0,0,0,0,0,0,0,0,0,0,0.9162,0.9162,0.9185,0.9185,0.9186,0.9206,0.9206,0.9207,0.9226,0.9226,0.9226,0.9227,0.9249,0.9249,0.9249,0,0,0,0,0,0,0,0,0,0,0,0,0,0.9176,0.9162,0.9185,0.9198,0.9199,0.9206,0.9206,0.9207,0.9226,0.9226,0.9226,0.9227,0.9248,0.9249,0.9249,0.9246,0,0,0.9251,0.9251,0,0,0,0,0,0,0,0,0.9176,0.9177,0.9196,0.9197,0.9198,0.9214,0.9206,0.922,0.9226,0.9216,0.9227,0.9227,0.9237,0.9238,0.9242,0.9247,0.9248,0.9251,0.9252,0.9252,0.9252,0,0,0,0,0,0,0,0.9175,0.9176,0.9193,0.9196,0.9197,0.9202,0.9205,0.9209,0.9224,0.9217,0.9218,0.922,0.9238,0.9241,0.9242,0.9248,0.9251,0.9252,0.9252,0.9252,0.9253,0.9252,0,0,0,0,0,0,0.9172,0.9175,0.9193,0.9194,0.9188,0.9203,0.9205,0.9208,0.9224,0.9227,0.922,0.9221,0.924,0.9242,0.9243,0.9241,0.9252,0.9252,0.9253,0.9253,0.9253,0.9252,0,0,0,0,0,0,0.9171,0.9173,0.9192,0.9185,0.9188,0.9203,0.9206,0.9209,0.9212,0.9227,0.9229,0.922,0.924,0.9242,0.9245,0.9242,0.9253,0.9253,0.9253,0.9253,0.9252,0.9235,0,0,0,0,0,0,0.917,0.9173,0.9171,0.9185,0.9188,0.9194,0.9206,0.9209,0.9213,0.9215,0.9228,0.923,0.9241,0.9244,0.9246,0.9243,0.9254,0.9254,0.9253,0.9253,0.9236,0.9234,0.9233,0,0,0,0,0,0.9169,0.9166,0.9171,0.9173,0.9187,0.9193,0.9195,0.9207,0.9212,0.9212,0.9221,0.923,0.9242,0.9244,0.9246,0.9243,0.9254,0.9253,0.9253,0.9237,0.9235,0.9233,0,0,0,0,0,0,0.9151,0.9168,0.9174,0.9175,0.9182,0.9197,0.9196,0.9204,0.921,0.9212,0.9226,0.9229,0.923,0.9237,0.924,0.9241,0.9249,0.9249,0.9237,0.9235,0.9233,0.9231,0.9254,0,0,0,0,0,0.9147,0.9151,0.9165,0.9164,0.9168,0.9181,0.9184,0.9192,0.9201,0.9205,0.9214,0.9223,0.9228,0.9232,0.9237,0.9237,0.9241,0.9236,0.9234,0.9232,0.9232,0.9233,0.9231,0.925,0.925,0.925,0,0,0.9139,0.9149,0.915,0.9161,0.9168,0.9172,0.9184,0.9187,0.919,0.9205,0.9209,0.9216,0.9226,0.9228,0.9229,0.9233,0.9228,0.9232,0.923,0.9231,0.9232,0.923,0.9229,0.9249,0.9249,0.925,0,0,0.9127,0.9134,0.9134,0.9141,0.9152,0.916,0.916,0.9173,0.9179,0.9182,0.9194,0.9198,0.9207,0.9214,0.9219,0.9209,0.9218,0.921,0.9201,0.9201,0.92,0.9199,0.9196,0.9195,0.921,0.921,0.921,0,0.9116,0.9122,0.9134,0.9136,0.9141,0.9155,0.9155,0.9161,0.9173,0.9176,0.9181,0.9193,0.9201,0.9204,0.9202,0.9205,0.9206,0.9209,0.9199,0.9198,0.9197,0.9195,0.9193,0.9209,0.9209,0.9209,0.9209,0,0.9108,0.9112,0.9111,0.9122,0.9126,0.9128,0.914,0.9143,0.9151,0.9159,0.9163,0.9173,0.9181,0.9182,0.919,0.9187,0.919,0.9196,0.9205,0.9194,0.9192,0.9191,0.9207,0.9208,0.9208,0.9208,0,0,0.9085,0.9103,0.9102,0.9108,0.912,0.9123,0.9126,0.9134,0.9136,0.9144,0.9147,0.9154,0.9161,0.9166,0.9174,0.9175,0.9167,0.9182,0.9182,0.9179,0.9165,0.916,0.9159,0.9173,0.9172,0.9172,0.9164,0,0.9075,0.908,0.9091,0.9093,0.9097,0.911,0.9112,0.912,0.9128,0.9132,0.9141,0.9146,0.9154,0.9157,0.9158,0.9168,0.9164,0.9168,0.9176,0.9176,0.9174,0.9158,0.9153,0.9145,0.9164,0.9163,0.9163,0,0.9065,0.9072,0.9074,0.9086,0.9088,0.909,0.9098,0.9102,0.9112,0.9117,0.9123,0.9133,0.9136,0.9143,0.9149,0.9151,0.9155,0.916,0.916,0.9161,0.9169,0.916,0.9142,0.9142,0.9162,0.9162,0.9162,0,0.9049,0.9058,0.9061,0.9065,0.908,0.9081,0.9087,0.9096,0.9101,0.9108,0.9111,0.9118,0.9123,0.9128,0.9139,0.9144,0.9144,0.9152,0.9149,0.9149,0.9149,0.9149,0.9133,0.915,0.915,0.915,0.915,0,0.9037,0.9038,0.9054,0.9056,0.9058,0.907,0.9071,0.9078,0.9087,0.9091,0.9102,0.9105,0.9119,0.9124,0.9133,0.9136,0.9138,0.9143,0.9145,0.9142,0.9141,0.9145,0.9146,0.915,0.915,0.915,0.915,0,0.902,0.9031,0.9035,0.9048,0.9051,0.9052,0.9063,0.9066,0.9074,0.9078,0.908,0.9093,0.9099,0.9111,0.912,0.9126,0.9128,0.9132,0.9125,0.9126,0.9123,0.9123,0.9109,0.9108,0.9125,0.9125,0.9125,0,0.9012,0.9014,0.9027,0.903,0.9036,0.904,0.9045,0.9057,0.9061,0.9072,0.9073,0.908,0.9086,0.9096,0.9106,0.9114,0.9118,0.9113,0.9119,0.9116,0.9119,0.9119,0.9119,0.9111,0.9111,0.9111,0.9111,0,0.8998,0.9003,0.9009,0.9016,0.9021,0.9028,0.9035,0.9037,0.9051,0.9055,0.9061,0.9066,0.9076,0.9083,0.9092,0.9098,0.9107,0.9108,0.9108,0.9105,0.9102,0.9104,0.9121,0.9109,0.9109,0.9109,0.9109,0.9109,0.8986,0.8987,0.8997,0.9003,0.901,0.9016,0.9019,0.9028,0.9033,0.9042,0.9049,0.9055,0.9064,0.9077,0.9083,0.9088,0.9092,0.9092,0.9092,0.9092,0.9091,0.91,0.909,0.909,0.909,0.909,0.909,0,0.8972,0.8979,0.8984,0.8994,0.8999,0.9006,0.9015,0.9018,0.9023,0.9031,0.9037,0.9045,0.9052,0.9063,0.9071,0.9073,0.9077,0.9074,0.9075,0.9076,0.9086,0.9086,0.9071,0.9071,0.9071,0.9071,0.9071,0.9071,0.8966,0.8969,0.8976,0.8983,0.899,0.8995,0.9,0.9006,0.9012,0.902,0.9026,0.9033,0.9042,0.9051,0.9058,0.9061,0.9063,0.906,0.9064,0.9074,0.9075,0.9077,0.9077,0.906,0.906,0.9053,0.9053,0.9053]},{"header":{"parameterUnit":"m.s-1","parameterCategory":1,"la1":30.2991,"la2":30.254,"lo1":-89.0895,"lo2":-89.0444,"dy":0.0017,"dx":0.0017,"nx":28,"ny":28,"refTime":"2024-10-13T09:00:00:Z","depth":0,"parameterNumber":3,"parameterNumberName":"V-component_of_WINDS"},"data":[0,0,0,0,0,0,0,0,0,0,0,0,0,0,0,0,0,0,0,0,0,0,0,0,0,0,0,0,0,0,0,0,0,0,0,0,0,0,0,0,0,0,0,0,0,0,0,0,0,0,0,0,0,0,0,0,0,0,1.3025,1.3024,0,1.2965,1.2964,1.2963,1.2966,1.2967,1.2968,1.2969,1.2905,1.2902,1.29,0,0,0,0,0,0,0,0,0,0,0,0,0,1.3138,1.3136,1.3025,1.3024,1.3023,1.2965,1.2964,1.2963,1.2966,1.2967,1.2968,1.2969,1.2905,1.2902,1.2899,0,0,0,0,0,0,0,0,0,0,0,0,0,1.3084,1.3135,1.3025,1.3018,1.3016,1.2965,1.2964,1.2963,1.2966,1.2967,1.2969,1.297,1.2906,1.2903,1.2899,1.285,0,0,1.2888,1.2886,0,0,0,0,0,0,0,0,1.3087,1.308,1.3019,1.3018,1.3017,1.2974,1.298,1.2925,1.2966,1.2985,1.2969,1.297,1.2927,1.2921,1.2907,1.2847,1.2844,1.2887,1.2885,1.2883,1.2882,0,0,0,0,0,0,0,1.3091,1.3083,1.3001,1.3019,1.3017,1.3016,1.301,1.297,1.2949,1.2983,1.2984,1.2977,1.2926,1.2911,1.2906,1.2843,1.2887,1.2884,1.2882,1.288,1.2737,1.2736,0,0,0,0,0,0,1.3097,1.3086,1.3003,1.2999,1.3056,1.3013,1.3006,1.2987,1.295,1.2945,1.2976,1.2977,1.2917,1.291,1.2903,1.2842,1.2883,1.288,1.2878,1.2739,1.2737,1.2735,0,0,0,0,0,0,1.3099,1.3089,1.3005,1.3042,1.3032,1.301,1.2988,1.2985,1.2969,1.2944,1.294,1.2964,1.2917,1.2909,1.2863,1.2839,1.2878,1.2875,1.2741,1.2738,1.2736,1.2719,0,0,0,0,0,0,1.3102,1.309,1.3072,1.3042,1.303,1.2967,1.2986,1.2983,1.2963,1.2965,1.2932,1.2927,1.2918,1.2868,1.2859,1.2835,1.2872,1.2743,1.274,1.2737,1.2721,1.2716,1.2712,0,0,0,0,0,1.3106,1.307,1.3071,1.3061,1.3007,1.2965,1.2958,1.2949,1.2961,1.2942,1.2926,1.2929,1.2844,1.2864,1.2853,1.2828,1.2744,1.274,1.2737,1.2724,1.2717,1.2712,0,0,0,0,0,0,1.3097,1.3066,1.3067,1.302,1.2995,1.2966,1.2942,1.2943,1.2913,1.2915,1.2904,1.2896,1.285,1.2834,1.2857,1.2777,1.2795,1.279,1.2789,1.2783,1.2778,1.2782,1.2869,0,0,0,0,0,1.3089,1.3059,1.3033,1.2994,1.2982,1.2964,1.2945,1.294,1.2914,1.2903,1.2883,1.2857,1.2824,1.2803,1.2771,1.272,1.2711,1.2697,1.2692,1.2688,1.2683,1.2652,1.2645,1.2724,1.2724,1.2724,0,0,1.3073,1.3052,1.3034,1.2991,1.2972,1.2939,1.2955,1.2921,1.2896,1.2898,1.2853,1.2837,1.2807,1.2757,1.2735,1.2743,1.2659,1.2684,1.2681,1.2678,1.2648,1.264,1.2634,1.2722,1.2722,1.2722,0,0,1.3027,1.3009,1.2973,1.2954,1.2924,1.2912,1.2904,1.2874,1.2864,1.2819,1.2819,1.2789,1.2734,1.2711,1.2693,1.2637,1.2638,1.2627,1.2602,1.2572,1.2566,1.256,1.2538,1.2531,1.2622,1.2622,1.2622,0,1.301,1.2963,1.2955,1.292,1.29,1.2901,1.2863,1.2844,1.2806,1.2791,1.2802,1.2731,1.2711,1.2655,1.2641,1.2627,1.2615,1.263,1.2568,1.2562,1.2556,1.2535,1.2527,1.2621,1.2621,1.2621,1.2622,0,1.2943,1.291,1.2884,1.2847,1.2825,1.2789,1.2774,1.2752,1.2748,1.2735,1.2688,1.2664,1.2627,1.2614,1.261,1.2557,1.2562,1.2571,1.2588,1.2548,1.2528,1.252,1.2619,1.262,1.262,1.2621,0,0,1.2888,1.2847,1.2838,1.282,1.2787,1.2761,1.2724,1.2688,1.2669,1.2642,1.261,1.2562,1.2569,1.2548,1.2541,1.2516,1.247,1.2526,1.2525,1.2515,1.2408,1.2401,1.2392,1.2471,1.247,1.2469,1.241,0,1.2837,1.2773,1.2764,1.2707,1.2675,1.2675,1.2643,1.2618,1.2605,1.2575,1.2559,1.2525,1.2538,1.2525,1.2499,1.2481,1.2448,1.2486,1.2439,1.2438,1.2445,1.2382,1.2374,1.232,1.2402,1.2401,1.24,0,1.2769,1.2741,1.268,1.265,1.2636,1.2608,1.2573,1.2545,1.2517,1.2509,1.2485,1.2481,1.2441,1.2462,1.2406,1.2432,1.2412,1.24,1.2398,1.2392,1.2415,1.2372,1.2303,1.2294,1.2388,1.2389,1.239,0,1.2733,1.2679,1.2636,1.2621,1.2586,1.2565,1.2549,1.2522,1.2501,1.247,1.2456,1.2422,1.2402,1.2375,1.2361,1.2378,1.2305,1.2325,1.2296,1.2296,1.2279,1.228,1.2204,1.227,1.227,1.227,1.227,0,1.2676,1.2638,1.2619,1.2592,1.2549,1.2539,1.2497,1.2481,1.2457,1.2426,1.2424,1.2394,1.2379,1.2347,1.2336,1.229,1.2282,1.2273,1.227,1.2272,1.2273,1.2258,1.226,1.2268,1.2268,1.2269,1.2269,0,1.2628,1.2614,1.2566,1.2536,1.2527,1.2497,1.2471,1.2444,1.2431,1.2391,1.2381,1.236,1.2321,1.2306,1.2259,1.2252,1.2198,1.2199,1.2208,1.2206,1.2177,1.2179,1.2087,1.2073,1.215,1.2149,1.2148,0,1.2591,1.2562,1.2529,1.2509,1.2492,1.2459,1.2437,1.2426,1.2403,1.2367,1.2344,1.2306,1.2275,1.2214,1.2193,1.2157,1.2155,1.2126,1.215,1.2152,1.2152,1.2154,1.215,1.2121,1.212,1.2119,1.2119,0,1.2527,1.2521,1.2491,1.2457,1.2431,1.2403,1.2377,1.2359,1.2343,1.2317,1.2279,1.2255,1.2207,1.2168,1.2131,1.2113,1.2112,1.2112,1.2102,1.2103,1.2108,1.2103,1.2193,1.2113,1.2114,1.2114,1.2115,1.2115,1.2482,1.2456,1.2428,1.2393,1.2372,1.2347,1.2319,1.2303,1.2271,1.2231,1.2226,1.2184,1.2154,1.2104,1.2084,1.205,1.2058,1.2045,1.2041,1.2038,1.2035,1.2115,1.2044,1.2044,1.2044,1.2044,1.2044,0,1.2417,1.2399,1.2367,1.2329,1.2301,1.2305,1.2275,1.2251,1.2214,1.2187,1.2157,1.2111,1.2074,1.205,1.2012,1.1989,1.1988,1.1979,1.198,1.1975,1.2031,1.2042,1.1981,1.1981,1.1981,1.1981,1.1981,1.1981,1.2379,1.2334,1.2325,1.2268,1.225,1.221,1.2192,1.2168,1.2146,1.2096,1.2065,1.205,1.2024,1.1984,1.1949,1.1943,1.1928,1.1918,1.1912,1.1965,1.1971,1.1978,1.1988,1.1916,1.1916,1.1859,1.1858,1.1858]}]]